Tracking 21076 objects as of 10-Aug-2020
HD Live streaming from Space Station
objects crossing your sky now
Track the most recent launched group of Starlink satellites

TITAN 3C TRANSTAGE R/B

Track TITAN 3C TRANSTAGE R/B now!


NORAD ID: 3956
Int'l Code: 1969-046F
Perigee: 7,284.5 km
Apogee: 121,381.1 km
Inclination: 19.2 °
Period: 3,118.3 minutes
Semi major axis: 70703 km
RCS: 6.4225 m2 (large)
Launch date: May 23, 1969
Source: United States (US)
Launch site: AIR FORCE EASTERN TEST RANGE (AFETR)

Note: This is a ROCKET BODY
aabbcc
Your satellite tracking list
Your tracking list is empty




NASA's NSSDC Master Catalog

Two Line Element Set (TLE):
1  3956U 69046F   20224.44881316 -.00000385  00000-0  00000+0 0  9999
2  3956  19.2375 338.9806 8068630 273.4221   0.8620  0.46178397 52278
Source of the keplerian elements: AFSPC